Regional Weather Roundup
Issued by NWS Goodland, KS

Home | Current Version | Previous Version | Text Only | Print | Product List | Glossary Off
Versions: 1 2 3 4 5 6 7 8 9 10 11 12 13 14 15 16 17 18 19 20 21 22 23 24 25 26 27 28 29 30 31 32 33 34 35 36 37 38 39 40 41 42 43 44 45 46 47 48 49 50

000
ASUS43 KGLD 061808
RWRGLD

GOODLAND FORECAST AREA HOURLY WEATHER ROUNDUP
NATIONAL WEATHER SERVICE GOODLAND KS
1100 AM MST TUE DEC 06 2016

...OFFICIAL OBSERVATIONS...

CITY           SKY/WX    TMP DP  RH WIND       PRES   REMARKS
GOODLAND KS    SUNNY     29   3  33 MISG      30.04F
HILL CITY KS   SUNNY     34   8  33 N12G20    30.09F
IMPERIAL NEB   SUNNY     30   3  31 NW12      30.03F
MCCOOK NEB     SUNNY     31   8  38 W14       30.07F
AKRON CO       SUNNY     25  -5  26 W10       29.97F WCI  15
BURLINGTON CO  SUNNY     27   0  31 W5        30.03F
LIMON CO       SUNNY     23  -3  32 SE7       29.96F
$$

...UNOFFICIAL OBSERVATIONS...

CITY           SKY/WX    TMP DP  RH WIND       PRES   REMARKS
COLBY KS       SUNNY     34   9  35 NW9       30.07F
LENORA KS        N/A     32  32 100 MISG        N/A
NORTON KS      SUNNY     34   3  27 W14       30.06F
SHARON SPRINGS   N/A     31   6  34 N6          N/A
TRENTON NEB      N/A     29  32 100 NW7         N/A
KIT CARSON CO    N/A     25   5  42 CALM        N/A
YUMA CO        FAIR      28  -6  22 NW12G17   30.00F WCI  18
$$



USA.gov is the U.S. government's official web portal to all federal, state and local government web resources and services.